Weather History for Monte Cimone, Italy

Change the Weather History Date:

Thursday, July 4, 2013

  Actual Average Record
Temperature  
Mean Temperature 49 °F -  
Max Temperature 50 °F 55 °F 66 °F (1999)
Min Temperature 48 °F 46 °F 41 °F (2003)
Degree Days  
Heating Degree Days 16    
Moisture  
Dew Point 46 °F    
Average Humidity 90    
Maximum Humidity 100    
Minimum Humidity 70    
Precipitation  
Precipitation 0.00 in 0.07 in - ()
Sea Level Pressure  
Sea Level Pressure 30.26 in    
Wind  
Wind Speed 8 mph ()    
Max Wind Speed 23 mph    
Max Gust Speed -    
Visibility 3.4 miles    
Events Fog    
Averages and records for this station are not official NWS values.
T = Trace of Precipitation, MM = Missing Value Source: Averaged Metar Reports

Daily Weather History Graph

Daily Weather History Graph

Search for Another Location

Airport:

Trip Planner

Search our weather history database for the weather conditions in past years. The results will help you decide how hot, cold, wet, or windy it might be!

Date:

Astronomy

Jul. 04, 2013 Rise Set
Actual Time 5:39 AM CEST 9:03 PM CEST
Civil Twilight 5:03 AM CEST 9:39 PM CEST
Nautical Twilight 4:15 AM CEST 10:27 PM CEST
Astronomical Twilight 3:16 AM CEST 11:26 PM CEST
Moon 2:48 AM CEST (7/4) 5:50 PM CEST (7/4)
Length of Visible Light 16h 36m
Length of Day
15h 24m
Waning Crescent, 13% of the Moon is Illuminated
Jul 4
Waning Crescent
Jul 8
New
Jul 16
First Quarter
Jul 22
Full
Jul 29
Last Quarter

Hourly Weather History & Observations

Time (CEST) Temp. Windchill Dew Point Humidity Pressure Visibility Wind Dir Wind Speed Gust Speed Precip Events Conditions
12:55 AM 50.0 °F - 44.6 °F 82% 30.21 in 6.2 mi NW 9.2 mph - N/A   Scattered Clouds
1:55 AM 50.0 °F - 42.8 °F 76% 30.21 in 6.2 mi North 5.8 mph - N/A   Scattered Clouds
2:00 AM 50 °F - 43 °F 70%  in 19 mi North 5.8 mph - -   Partly Cloudy
2:55 AM 48.2 °F - 42.8 °F 82% 30.21 in 6.2 mi Calm Calm - N/A   Scattered Clouds
3:55 AM 48.2 °F - 42.8 °F 82% 30.21 in 6.2 mi Calm Calm - N/A   Scattered Clouds
4:55 AM 46.4 °F 41.9 °F 42.8 °F 87% 30.18 in 6.2 mi North 9.2 mph - N/A   Unknown
5:55 AM 48.2 °F - 46.4 °F 93% 30.18 in 6.2 mi East 8.1 mph - N/A   Scattered Clouds
6:55 AM 50.0 °F - 48.2 °F 94% 30.18 in 6.2 mi ENE 6.9 mph - N/A   Scattered Clouds
7:55 AM 48.2 °F - 44.6 °F 87% 30.18 in 6.2 mi NE 5.8 mph - N/A   Mostly Cloudy
8:00 AM 49 °F - 45 °F 81%  in 9 mi NE 5.8 mph - -   Mostly Cloudy
8:55 AM 50.0 °F - 46.4 °F 87% 30.21 in 0.2 mi NE 8.1 mph - N/A Fog Fog
9:55 AM 50.0 °F - 48.2 °F 94% 30.21 in 0.2 mi NNE 9.2 mph - N/A Fog Fog
10:55 AM 48.2 °F - 48.2 °F 100% 30.21 in 0.0 mi NNE 13.8 mph - N/A Fog Fog
11:55 AM 50.0 °F - 48.2 °F 94% 30.27 in 0.0 mi NE 15.0 mph - N/A Fog Fog
12:55 PM 50.0 °F - 48.2 °F 94% 30.27 in 0.0 mi Calm Calm - N/A Fog Fog
1:55 PM 50.0 °F - 50.0 °F 100% 30.27 in 0.0 mi ENE 9.2 mph - N/A Fog Fog
2:00 PM 51 °F - 50 °F 93%  in 0 mi ENE 9.2 mph - - Fog Heavy Fog
2:55 PM 50.0 °F - 50.0 °F 100% 30.27 in 0.0 mi NE 13.8 mph - N/A Fog Fog
3:55 PM 50.0 °F - 48.2 °F 94% 30.30 in 0.0 mi NNE 11.5 mph - N/A Fog Fog
4:55 PM 50.0 °F - 48.2 °F 94% 30.30 in 0.1 mi NNE 9.2 mph - N/A Fog Fog
5:55 PM 50.0 °F - 50.0 °F 100% 30.30 in 0.0 mi NNE 11.5 mph - N/A Fog Fog
6:55 PM 50.0 °F - 48.2 °F 94% 30.30 in 1.2 mi NNE 17.3 mph - N/A   Scattered Clouds
7:55 PM 48.2 °F - 44.6 °F 87% 30.30 in 5.0 mi NNE 18.4 mph - N/A   Partly Cloudy
8:00 PM 49 °F - 44 °F 78%  in 5 mi NNE 18.4 mph - -   Mist
8:55 PM 48.2 °F - 46.4 °F 93% 30.33 in - NNE 23.0 mph - N/A   Clear
9:55 PM 48.2 °F - 46.4 °F 93% 30.33 in - NE 23.0 mph - N/A   Clear
10:55 PM 48.2 °F - 46.4 °F 93% 30.39 in 0.0 mi NNE 20.7 mph - N/A Fog Fog
11:55 PM 48.2 °F - 46.4 °F 93% 30.39 in 0.0 mi North 20.7 mph - N/A Fog Fog